Pasco, WA
on Thursday, November 8, 2012

Thursday
Previous Day Next Day
Daily Summary
 ActualAverageRecord
Temperature
Mean Temperature °F 44°F  
Max Temperature 50°F 54°F 68°F (1996)
Min Temperature 30°F 34°F 21°F (1993)
Degree Days
Heating Degree Days 25 21  
Month to date heating degree days 112 159  
Since 1 July heating degree days 556 677  
Cooling Degree Days 0 0  
Month to date cooling degree days 0 0  
Year to date cooling degree days 788 710  
Moisture
Dew Point 33°F   
Average Humidity 71    
Maximum Humidity 96    
Minimum Humidity 46    
Precipitation
Precipitation 0.00 in 0.03 in 0.55 in (1968)
Month to date precipitation 0.10 0.24  
Year to date precipitation 7.56 6.77  
Snow
Snow 0.00 in in in ()
Snow Depth 0.00 in   
Wind
Wind Speed 4 mph   
Max Wind Speed 15 mph   
Max Gust Speed 17 mph   
Visibility 10 miles   
Events     

Key: T is trace of precipitation, MM is missing value
Source: NWS Daily Summary
Time(PST)TemperatureDew PointHumidity Pressure Visibility Wind DirectionWind SpeedGust SpeedPrecipitationEvents Conditions
12:53 AM 35.1°F 33.1°F 92% 29.94 in 10.0 miles NW 4.6 mph - N/A   Overcast
1:53 AM 34.0°F 32.0°F 92% 29.94 in 10.0 miles WNW 3.5 mph - N/A   Overcast
2:53 AM 33.1°F 30.9°F 92% 29.92 in 10.0 miles Calm Calm - N/A   Clear
3:53 AM 32.0°F 30.9°F 96% 29.89 in 10.0 miles NNW 4.6 mph - N/A   Mostly Cloudy
4:53 AM 30.9°F 28.9°F 92% 29.88 in 10.0 miles WNW 3.5 mph - N/A   Clear
5:53 AM 32.0°F 30.9°F 96% 29.86 in 10.0 miles Calm Calm - N/A   Clear
6:53 AM 34.0°F 32.0°F 92% 29.85 in 10.0 miles Calm Calm - N/A   Scattered Clouds
7:53 AM 36.0°F 34.0°F 93% 29.85 in 10.0 miles NW 3.5 mph - N/A   Mostly Cloudy
8:53 AM 37.9°F 34.0°F 86% 29.83 in 10.0 miles Calm Calm - N/A   Scattered Clouds
9:53 AM 41.0°F 35.1°F 79% 29.81 in 10.0 miles NW 10.4 mph - N/A   Mostly Cloudy
10:53 AM 44.1°F 33.1°F 65% 29.79 in 10.0 miles NNW 12.7 mph - N/A   Clear
11:53 AM 46.0°F 34.0°F 63% 29.78 in 10.0 miles NNW 6.9 mph - N/A   Overcast
12:53 PM 48.9°F 32.0°F 52% 29.77 in 10.0 miles NE 4.6 mph - N/A   Overcast
1:53 PM 50.0°F 33.1°F 52% 29.75 in 10.0 miles NW 10.4 mph - N/A   Overcast
2:53 PM 50.0°F 30.9°F 48% 29.76 in 10.0 miles West 5.8 mph - N/A   Overcast
3:53 PM 48.9°F 33.1°F 54% 29.75 in 10.0 miles SSW 5.8 mph - N/A   Mostly Cloudy
4:53 PM 44.1°F 36.0°F 73% 29.76 in 10.0 miles SW 10.4 mph - N/A   Mostly Cloudy
5:53 PM 41.0°F 35.1°F 79% 29.76 in 10.0 miles SW 8.1 mph - N/A   Scattered Clouds
6:53 PM 39.9°F 35.1°F 83% 29.77 in 10.0 miles Calm Calm - N/A   Mostly Cloudy
7:53 PM 37.0°F 34.0°F 89% 29.78 in 10.0 miles Calm Calm - N/A   Clear
8:53 PM 36.0°F 33.1°F 89% 29.80 in 10.0 miles WSW 5.8 mph - N/A   Mostly Cloudy
9:53 PM 35.1°F 32.0°F 89% 29.81 in 10.0 miles West 3.5 mph - N/A   Mostly Cloudy
10:53 PM 36.0°F 34.0°F 93% 29.80 in 10.0 miles NNW 3.5 mph - N/A   Overcast
11:53 PM 36.0°F 34.0°F 93% 29.81 in 10.0 miles NW 3.5 mph - N/A   Overcast
Moon Phase
Nov. 08 Nov. 13 Nov. 20 Nov. 28 Dec. 06
Sunrise:06:48 AM (PST) Moon Rise:12:29 AM (PST)11/8
Sunset:04:31 PM (PST) Moon Set:01:32 PM (PST)11/8

Copyright © 2014 The Weather Underground, Inc.